When you browse on this site, cookies collect data to enhance your experience and personalize the content and advertising you see.
Visit our Privacy Policy to learn more. By continuing to use the site, you agree to this use of cookies and data.
  • In Hungary
  • List of Countries
  • For 7 days
  • Water Temperature
  • Satellite Maps
  • Weather Map
  • News
  • Weather Widgets
  • user-avatar
    Login

    Hourly Weather Ixtenco

    Today, 16 February, Saturday

    Time Temperature Precipitation Wind Pressure Humidity
    00:00 +13°C° 0 mm 0 mps 561 mmHg 61%
    01:00 +12°C° 0 mm 0 mps 561 mmHg 63%
    02:00 +12°C° 0 mm 0 mps 560 mmHg 66%
    03:00 +11°C° 0 mm 0 mps 560 mmHg 68%
    04:00 +11°C° 0 mm 0 mps 560 mmHg 71%
    05:00 +11°C° 0 mm 0 mps 560 mmHg 73%
    06:00 +12°C° 0 mm 0 mps 561 mmHg 66%
    07:00 +15°C° 0 mm 1 mps 562 mmHg 60%
    08:00 +16°C° 0 mm 1 mps 563 mmHg 53%
    09:00 +20°C° 0 mm 1 mps 563 mmHg 47%
    10:00 +22°C° 0 mm 1 mps 564 mmHg 40%
    11:00 +24°C° 0 mm 2 mps 565 mmHg 33%
    12:00 +25°C° 0 mm 2 mps 565 mmHg 32%
    13:00 +25°C° 0 mm 3 mps 564 mmHg 30%
    14:00 +26°C° 0 mm 4 mps 564 mmHg 28%
    15:00 +25°C° 0 mm 4 mps 563 mmHg 31%
    16:00 +23°C° 0 mm 5 mps 563 mmHg 34%
    17:00 +22°C° 0 mm 5 mps 562 mmHg 37%
    18:00 +20°C° 0 mm 4 mps 562 mmHg 41%
    19:00 +18°C° 0 mm 3 mps 561 mmHg 44%
    20:00 +17°C° 0 mm 2 mps 561 mmHg 48%
    21:00 +16°C° 0 mm 2 mps 561 mmHg 48%
    22:00 +15°C° 0 mm 2 mps 561 mmHg 48%
    23:00 +15°C° 0 mm 2 mps 560 mmHg 48%

    Tomorrow, 17 February, Sunday

    Time Temperature Precipitation Wind Pressure Humidity
    00:00 +14°C° 0 mm 1 mps 560 mmHg 49%
    01:00 +14°C° 0 mm 1 mps 559 mmHg 51%
    02:00 +13°C° 0 mm 1 mps 559 mmHg 52%
    03:00 +12°C° 0 mm 1 mps 559 mmHg 54%
    04:00 +12°C° 0 mm 1 mps 559 mmHg 56%
    05:00 +12°C° 0 mm 1 mps 558 mmHg 57%
    06:00 +13°C° 0 mm 1 mps 560 mmHg 53%
    07:00 +14°C° 0 mm 1 mps 561 mmHg 49%
    08:00 +16°C° 0 mm 1 mps 562 mmHg 45%
    09:00 +18°C° 0 mm 2 mps 563 mmHg 39%
    10:00 +20°C° 0 mm 2 mps 564 mmHg 34%
    11:00 +22°C° 0 mm 3 mps 565 mmHg 28%
    12:00 +24°C° 0 mm 3 mps 564 mmHg 26%
    13:00 +25°C° 0 mm 4 mps 564 mmHg 24%
    14:00 +26°C° 0 mm 4 mps 564 mmHg 22%
    15:00 +25°C° 0 mm 4 mps 563 mmHg 24%
    16:00 +23°C° 0 mm 4 mps 563 mmHg 26%
    17:00 +22°C° 0 mm 4 mps 563 mmHg 29%
    18:00 +20°C° 0 mm 3 mps 563 mmHg 33%
    19:00 +18°C° 0 mm 2 mps 562 mmHg 37%
    20:00 +16°C° 0 mm 1 mps 562 mmHg 41%
    21:00 +16°C° 0 mm 1 mps 562 mmHg 43%
    22:00 +15°C° 0 mm 1 mps 562 mmHg 45%
    23:00 +14°C° 0 mm 1 mps 562 mmHg 48%

    Day after tomorrow, 18 February, Monday

    Time Temperature Precipitation Wind Pressure Humidity
    00:00 +14°C° 0 mm 1 mps 561 mmHg 51%
    01:00 +13°C° 0 mm 1 mps 561 mmHg 54%
    02:00 +13°C° 0 mm 1 mps 561 mmHg 57%
    03:00 +13°C° 0 mm 1 mps 561 mmHg 59%
    04:00 +12°C° 0 mm 1 mps 560 mmHg 61%
    05:00 +12°C° 0 mm 1 mps 560 mmHg 63%
    06:00 +13°C° 0 mm 1 mps 562 mmHg 59%
    07:00 +15°C° 0 mm 1 mps 563 mmHg 54%
    08:00 +18°C° 0 mm 1 mps 564 mmHg 50%
    09:00 +19°C° 0 mm 2 mps 565 mmHg 43%
    10:00 +20°C° 0 mm 3 mps 566 mmHg 37%
    11:00 +22°C° 0 mm 4 mps 567 mmHg 30%
    12:00 +23°C° 0 mm 5 mps 566 mmHg 29%
    13:00 +23°C° 0 mm 6 mps 566 mmHg 28%
    14:00 +24°C° 0 mm 6 mps 565 mmHg 27%
    15:00 +23°C° 0 mm 6 mps 564 mmHg 30%
    16:00 +22°C° 0 mm 6 mps 564 mmHg 33%
    17:00 +20°C° 0 mm 5 mps 563 mmHg 36%
    18:00 +19°C° 0.2 mm 4 mps 563 mmHg 41%
    19:00 +17°C° 0.2 mm 3 mps 563 mmHg 45%
    20:00 +16°C° 0.2 mm 1 mps 563 mmHg 50%
    21:00 +15°C° 0 mm 1 mps 562 mmHg 52%
    22:00 +15°C° 0 mm 2 mps 562 mmHg 55%
    23:00 +14°C° 0 mm 2 mps 562 mmHg 57%

    19 February, Tuesday

    Time Temperature Precipitation Wind Pressure Humidity
    00:00 +13°C° 0 mm 2 mps 561 mmHg 58%
    01:00 +13°C° 0 mm 1 mps 560 mmHg 59%
    02:00 +12°C° 0 mm 1 mps 560 mmHg 59%
    03:00 +12°C° 0 mm 1 mps 560 mmHg 58%
    04:00 +11°C° 0 mm 1 mps 559 mmHg 57%
    05:00 +11°C° 0 mm 1 mps 559 mmHg 56%
    06:00 +12°C° 0 mm 1 mps 560 mmHg 53%
    07:00 +13°C° 0 mm 2 mps 561 mmHg 50%
    08:00 +15°C° 0 mm 2 mps 562 mmHg 47%
    09:00 +17°C° 0 mm 3 mps 563 mmHg 41%
    10:00 +19°C° 0 mm 4 mps 564 mmHg 35%
    11:00 +21°C° 0 mm 5 mps 564 mmHg 30%
    12:00 +21°C° 0 mm 6 mps 564 mmHg 27%
    13:00 +21°C° 0 mm 7 mps 563 mmHg 25%
    14:00 +22°C° 0 mm 7 mps 562 mmHg 23%
    15:00 +21°C° 0 mm 6 mps 562 mmHg 25%
    16:00 +20°C° 0 mm 6 mps 562 mmHg 27%
    17:00 +17°C° 0 mm 5 mps 561 mmHg 29%
    18:00 +17°C° 0 mm 4 mps 561 mmHg 33%
    19:00 +16°C° 0 mm 3 mps 561 mmHg 36%
    20:00 +14°C° 0 mm 2 mps 560 mmHg 40%
    21:00 +13°C° 0 mm 2 mps 560 mmHg 41%
    22:00 +13°C° 0 mm 2 mps 560 mmHg 42%
    23:00 +12°C° 0 mm 2 mps 559 mmHg 43%

    20 February, Wednesday

    Time Temperature Precipitation Wind Pressure Humidity
    00:00 +12°C° 0 mm 2 mps 559 mmHg 45%
    01:00 +10°C° 0 mm 2 mps 558 mmHg 47%
    02:00 +10°C° 0 mm 1 mps 558 mmHg 49%
    03:00 +10°C° 0 mm 1 mps 557 mmHg 50%
    04:00 +9°C° 0 mm 1 mps 557 mmHg 51%
    05:00 +9°C° 0 mm 1 mps 557 mmHg 52%
    06:00 +10°C° 0 mm 1 mps 558 mmHg 50%
    07:00 +12°C° 0 mm 1 mps 559 mmHg 47%
    08:00 +13°C° 0 mm 1 mps 560 mmHg 44%
    09:00 +15°C° 0 mm 2 mps 561 mmHg 39%
    10:00 +18°C° 0 mm 3 mps 562 mmHg 34%
    11:00 +20°C° 0 mm 4 mps 563 mmHg 29%
    12:00 +20°C° 0 mm 4 mps 562 mmHg 27%
    13:00 +21°C° 0 mm 5 mps 562 mmHg 25%
    14:00 +22°C° 0 mm 6 mps 562 mmHg 23%
    15:00 +21°C° 0 mm 6 mps 562 mmHg 24%
    16:00 +20°C° 0 mm 6 mps 561 mmHg 26%
    17:00 +17°C° 0 mm 6 mps 561 mmHg 28%
    18:00 +16°C° 0 mm 5 mps 561 mmHg 31%
    19:00 +14°C° 0 mm 3 mps 560 mmHg 34%
    20:00 +14°C° 0 mm 2 mps 560 mmHg 38%
    21:00 +13°C° 0 mm 2 mps 560 mmHg 40%
    22:00 +13°C° 0 mm 2 mps 560 mmHg 41%
    23:00 +12°C° 0 mm 2 mps 560 mmHg 43%

    21 February, Thursday

    Time Temperature Precipitation Wind Pressure Humidity
    00:00 +12°C° 0 mm 2 mps 559 mmHg 45%
    01:00 +10°C° 0 mm 2 mps 559 mmHg 46%
    02:00 +10°C° 0 mm 2 mps 558 mmHg 48%
    03:00 +9°C° 0 mm 2 mps 558 mmHg 48%
    04:00 +9°C° 0 mm 2 mps 558 mmHg 48%
    05:00 +8°C° 0 mm 2 mps 558 mmHg 49%
    06:00 +10°C° 0 mm 2 mps 559 mmHg 46%
    07:00 +12°C° 0 mm 2 mps 560 mmHg 43%
    08:00 +14°C° 0 mm 2 mps 561 mmHg 40%
    09:00 +16°C° 0 mm 3 mps 562 mmHg 36%
    10:00 +18°C° 0 mm 4 mps 563 mmHg 33%
    11:00 +20°C° 0 mm 5 mps 563 mmHg 29%
    12:00 +20°C° 0 mm 6 mps 563 mmHg 28%
    13:00 +21°C° 0 mm 7 mps 563 mmHg 27%
    14:00 +21°C° 0 mm 8 mps 562 mmHg 26%
    15:00 +20°C° 0 mm 7 mps 562 mmHg 28%
    16:00 +18°C° 0 mm 7 mps 561 mmHg 30%
    17:00 +17°C° 0 mm 6 mps 561 mmHg 32%
    18:00 +16°C° 0 mm 5 mps 561 mmHg 36%
    19:00 +14°C° 0 mm 3 mps 561 mmHg 40%
    20:00 +14°C° 0 mm 2 mps 560 mmHg 45%
    21:00 +13°C° 0 mm 2 mps 560 mmHg 47%
    22:00 +13°C° 0 mm 1 mps 560 mmHg 50%
    23:00 +12°C° 0 mm 1 mps 560 mmHg 53%
    Show more